EW9451 Weather Reports


time (UTC)temp
F
wind
direction
speed
knots
gust
knots
rain 1hr
in
rain 24hr
in
rain mn
in
humidity
%
barometer
mb
20260506182552 42 346 0.9 3.5 0.03 1.19 0.71 96 1001.5
20260506182055 42 48 0.9 3.5 0.04 1.19 0.71 96 1001.6
20260506181552 42 355 0.9 3.5 0.04 1.19 0.71 96 1001.7
20260506181053 42 295 0.9 4.3 0.05 1.19 0.71 96 1001.7
20260506180552 42 342 1.7 4.3 0.04 1.18 0.70 96 1001.9
20260506180100 42 338 1.7 3.5 0.04 1.18 0.70 96 1001.7
20260506175553 42 288 0.9 4.3 0.04 1.18 0.70 96 1001.8
20260506175050 42 5 0.9 4.3 0.05 1.18 0.70 96 1001.8
20260506174550 42 263 1.7 4.3 0.05 1.18 0.70 96 1001.9
20260506174050 42 298 1.7 4.3 0.05 1.17 0.69 96 1001.9
20260506173550 42 321 0.9 4.3 0.05 1.17 0.69 96 1001.8
20260506173106 42 13 1.7 4.3 0.06 1.17 0.69 96 1001.9
20260506172553 42 306 1.7 3.5 0.06 1.15 0.68 96 1001.9
20260506172051 42 330 1.7 3.5 0.05 1.14 0.67 96 1001.9
20260506171558 42 355 0.9 3.5 0.06 1.14 0.67 96 1001.8
20260506171050 42 323 1.7 2.6 0.06 1.13 0.66 96 1001.8
20260506170550 42 245 0.9 3.5 0.06 1.13 0.66 96 1001.9
20260506170049 42 355 0.9 3.5 0.07 1.13 0.66 96 1001.9
20260506165549 42 5 0.9 4.3 0.08 1.13 0.66 96 1002.0
20260506165049 42 344 0.9 4.3 0.08 1.12 0.65 96 1002.0
20260506164549 42 344 0.9 2.6 0.09 1.12 0.65 96 1002.0
20260506164051 42 306 0.9 2.6 0.09 1.12 0.64 96 1002.1
20260506163548 42 355 0.9 4.3 0.10 1.12 0.64 96 1002.1
20260506163050 42 329 0.9 4.3 0.09 1.11 0.63 96 1002.1
20260506162551 42 323 1.7 4.3 0.10 1.10 0.62 96 1002.1
20260506162051 42 360 0.9 4.3 0.11 1.10 0.62 95 1002.3
20260506161554 42 31 1.7 2.6 0.11 1.09 0.61 96 1002.2
20260506161047 42 345 0.9 3.5 0.11 1.08 0.60 96 1002.1
20260506160548 42 43 0.0 3.5 0.12 1.08 0.60 96 1002.1
20260506160050 42 111 0.0 2.6 0.12 1.07 0.59 96 1002.3
20260506155548 42 355 0.0 2.6 0.11 1.06 0.57 96 1002.3
20260506155046 42 332 0.9 3.5 0.11 1.05 0.56 96 1002.5
20260506154546 42 316 0.9 3.5 0.10 1.04 0.56 96 1002.4
20260506154046 42 279 0.9 3.5 0.10 1.03 0.55 96 1002.3
20260506153545 42 13 0.0 3.5 0.09 1.02 0.54 95 1002.2
20260506153045 42 331 1.7 3.5 0.09 1.01 0.53 96 1002.5
20260506152544 42 306 0.9 3.5 0.08 1.00 0.52 96 1002.4
20260506152046 42 9 0.0 4.3 0.08 0.99 0.51 96 1002.2
20260506151543 42 337 1.7 4.3 0.06 0.97 0.49 96 1002.1
20260506151044 42 220 1.7 4.3 0.07 0.97 0.49 96 1002.0
20260506150643 42 36 0.9 4.3 0.06 0.96 0.48 95 1002.0
20260506150042 42 360 0.9 5.2 0.06 0.95 0.47 96 1001.9
20260506145541 42 5 0.9 5.2 0.06 0.95 0.47 95 1001.9
20260506145041 42 339 0.9 3.5 0.05 0.94 0.46 96 1002.0
20260506144541 42 11 0.9 3.5 0.05 0.94 0.46 95 1002.0
20260506144041 42 24 0.9 2.6 0.04 0.93 0.45 95 1001.9
20260506143541 42 22 0.9 2.6 0.04 0.93 0.45 95 1002.1
20260506143041 42 338 0.0 2.6 0.04 0.92 0.44 95 1002.2
20260506142540 42 27 0.9 4.3 0.04 0.92 0.44 95 1002.3
20260506142040 42 40 0.9 5.2 0.03 0.91 0.43 95 1002.3
20260506141540 42 310 1.7 5.2 0.02 0.90 0.42 95 1002.2
20260506141039 42 304 0.9 4.3 0.02 0.90 0.42 95 1002.2
20260506140538 42 306 1.7 7.0 0.01 0.89 0.41 95 1002.1
20260506140043 43 313 1.7 7.0 0.01 0.89 0.41 95 1002.2
20260506135536 43 288 0.9 2.6 0.01 0.89 0.41 95 1001.9
20260506135036 43 13 0.9 3.5 0.02 0.89 0.41 95 1001.8
20260506134607 43 333 0.9 3.5 0.02 0.89 0.41 95 1002.0
20260506134036 43 346 0.0 4.3 0.02 0.89 0.41 95 1002.1
20260506133535 44 355 0.9 4.3 0.03 0.89 0.41 95 1002.1
20260506133035 44 360 0.9 1.7 0.02 0.88 0.40 96 1002.2
20260506132535 44 355 0.0 2.6 0.03 0.88 0.40 96 1002.2
20260506132035 44 360 0.0 2.6 0.03 0.88 0.40 96 1002.4
20260506131541 44 355 0.0 2.6 0.04 0.88 0.40 96 1002.4
20260506131035 43 329 0.9 4.3 0.04 0.88 0.40 95 1002.5
20260506130535 43 350 0.9 4.3 0.05 0.88 0.40 95 1002.6
20260506130036 43 34 1.7 3.5 0.05 0.88 0.40 95 1002.6
20260506125534 43 25 0.9 2.6 0.06 0.88 0.40 95 1002.4
20260506125034 43 333 0.9 6.1 0.05 0.87 0.39 94 1002.8
20260506124533 43 343 1.7 6.1 0.06 0.87 0.39 94 1002.7
20260506124032 43 348 0.9 6.1 0.06 0.87 0.39 95 1002.5
20260506123533 43 347 1.7 6.1 0.06 0.86 0.38 95 1002.4
20260506123033 43 348 0.0 3.5 0.07 0.86 0.38 95 1002.4
20260506122532 43 43 0.0 3.5 0.07 0.85 0.37 95 1002.6
20260506122030 44 338 0.9 3.5 0.08 0.85 0.37 95 1003.0
20260506121531 44 5 0.9 3.5 0.07 0.84 0.36 95 1003.0
20260506121029 44 298 1.7 3.5 0.07 0.84 0.36 95 1003.2
20260506120530 44 48 0.9 3.5 0.06 0.83 0.35 95 1002.9
20260506120028 44 330 0.9 3.5 0.07 0.83 0.35 95 1003.1
20260506115526 45 20 0.0 2.6 0.06 0.82 0.34 95 1003.2
20260506115026 45 181 0.0 2.6 0.06 0.82 0.34 96 1003.2
20260506114533 45 275 0.0 0.9 0.05 0.81 0.33 96 1003.4
20260506114025 45 275 0.0 2.6 0.05 0.81 0.33 96 1003.4
20260506113524 45 275 0.0 2.6 0.04 0.80 0.32 95 1003.3
20260506113029 45 268 1.7 2.6 0.03 0.79 0.31 95 1003.3
20260506112524 45 279 0.0 1.7 0.02 0.78 0.30 95 1002.9
20260506112022 45 279 0.0 1.7 0.02 0.77 0.28 95 1002.8
20260506111522 45 319 0.0 2.6 0.02 0.77 0.28 96 1002.4
20260506111021 45 293 0.9 2.6 0.02 0.77 0.28 96 1002.3
20260506110523 45 321 0.0 1.7 0.02 0.77 0.28 96 1002.3
20260506110021 45 321 0.0 1.7 0.01 0.76 0.28 96 1002.2
20260506105521 45 321 0.0 1.7 0.02 0.76 0.28 95 1002.3
20260506105020 45 321 0.0 1.7 0.03 0.76 0.28 95 1002.4
20260506104520 45 333 0.9 2.6 0.03 0.76 0.28 95 1002.5
20260506104018 45 265 0.0 2.6 0.03 0.76 0.28 95 1002.4
20260506103518 46 313 0.9 2.6 0.04 0.76 0.28 95 1002.3
20260506103024 46 348 0.9 2.6 0.04 0.76 0.28 95 1002.4
20260506102516 46 25 0.9 4.3 0.04 0.76 0.28 96 1002.3
20260506102015 46 355 1.7 4.3 0.03 0.75 0.27 96 1002.4
20260506101514 47 275 0.9 3.5 0.04 0.75 0.27 96 1002.5
20260506101013 47 313 0.9 3.5 0.04 0.75 0.27 96 1002.6
20260506100513 47 281 0.0 2.6 0.04 0.75 0.27 96 1002.2
20260506100021 47 281 0.9 2.6 0.04 0.75 0.27 96 1002.3
20260506095512 47 147 0.0 2.6 0.03 0.74 0.26 96 1001.6
20260506095010 47 210 0.0 1.7 0.02 0.73 0.25 96 1003.0
20260506094515 47 129 0.0 1.7 0.02 0.73 0.25 96 1002.6
20260506094009 47 128 0.9 1.7 0.02 0.73 0.25 96 1002.5
20260506093509 47 128 0.0 1.7 0.01 0.72 0.24 96 1002.5
20260506093008 47 128 0.0 1.7 0.02 0.72 0.24 96 1002.5
20260506092512 47 128 0.0 1.7 0.02 0.72 0.24 96 1002.7
20260506092008 47 128 0.9 1.7 0.02 0.72 0.24 96 1002.7
20260506091510 47 128 0.0 0.9 0.02 0.71 0.23 96 1002.9
20260506091008 47 128 0.9 0.9 0.02 0.71 0.23 96 1003.1
20260506090507 47 128 0.0 1.7 0.02 0.71 0.23 95 1002.7
20260506090007 47 128 0.0 1.7 0.03 0.71 0.23 95 1002.9
20260506085506 47 128 0.0 0.9 0.04 0.71 0.23 95 1002.9
20260506085005 47 128 0.0 0.9 0.06 0.71 0.23 95 1002.6
20260506084505 47 128 0.0 0.9 0.06 0.71 0.23 95 1002.8
20260506084004 47 128 0.0 0.9 0.06 0.71 0.23 95 1002.8
20260506083504 47 128 0.0 0.9 0.06 0.71 0.23 95 1002.9
20260506083005 48 128 0.0 1.7 0.05 0.70 0.22 95 1002.8
20260506082503 48 128 0.0 1.7 0.06 0.70 0.22 95 1002.8
20260506082003 48 128 0.9 1.7 0.06 0.70 0.22 95 1003.0
20260506081503 48 128 0.0 0.9 0.05 0.69 0.21 95 1002.9
20260506081002 48 128 0.0 1.7 0.05 0.69 0.21 95 1003.0
20260506080502 48 126 0.0 1.7 0.06 0.69 0.21 95 1002.9
20260506073057 49 106 0.0 1.7 0.09 0.65 0.17 96 1002.8
20260506072557 49 106 0.0 1.7 0.08 0.64 0.16 96 1002.9
20260506072056 49 106 0.0 1.7 0.08 0.64 0.16 95 1002.8
20260506071557 49 113 0.0 1.7 0.08 0.64 0.16 95 1002.8
20260506071055 49 113 0.9 1.7 0.08 0.64 0.16 95 1002.5
20260506070554 49 113 0.0 1.7 0.07 0.63 0.15 95 1002.5
20260506070116 49 163 0.9 1.7 0.06 0.62 0.14 95 1002.8
20260506062050 50 38 0.0 1.7 0.03 0.56 0.08 95 1002.7
20260506061549 50 39 0.0 0.9 0.04 0.56 0.08 95 1003.0
20260506061050 50 39 0.0 0.9 0.04 0.56 0.08 95 1002.9
20260506060547 50 36 0.0 2.6 0.04 0.56 0.08 95 1003.0
20260506051043 51 325 0.0 0.9 0.04 0.52 0.04 95 1003.0
20260506050643 51 325 0.0 1.7 0.04 0.52 0.04 95 1003.0
20260506045040 51 140 0.9 1.7 0.04 0.50 0.02 95 1002.7
20260506044541 51 140 0.0 1.7 0.05 0.50 0.02 95 1002.5
20260506044040 51 140 0.9 1.7 0.05 0.50 0.02 94 1002.3
20260506043542 51 140 0.0 1.7 0.05 0.50 0.02 94 1002.5
20260506043039 51 188 0.0 0.9 0.05 0.50 0.02 94 1001.9
20260506042538 51 188 0.0 0.9 0.06 0.50 0.02 94 1002.1
20260506042037 51 188 0.0 0.9 0.06 0.49 0.01 94 1002.3
20260506041539 51 188 0.0 1.7 0.06 0.48 0.00 94 1002.3
20260506041036 51 188 0.0 1.7 0.07 0.48 0.00 94 1002.8
20260506040534 52 184 0.0 1.7 0.08 0.48 0.48 94 1002.7
20260506040032 52 165 0.0 0.9 0.08 0.47 0.47 94 1002.5
20260506035532 52 165 0.0 0.9 0.07 0.46 0.46 94 1002.4
20260506035034 52 165 0.0 2.6 0.07 0.46 0.46 93 1002.5
20260506034531 52 165 0.0 2.6 0.06 0.45 0.45 93 1002.3
20260506034030 52 111 0.0 1.7 0.06 0.45 0.45 93 1002.1
20260506033533 52 107 0.0 1.7 0.06 0.45 0.45 93 1002.2
20260506033030 52 107 0.0 1.7 0.06 0.45 0.45 92 1002.3
20260506032530 52 107 0.9 1.7 0.05 0.44 0.44 90 1002.2
20260506032027 53 107 0.0 1.7 0.04 0.43 0.43 90 1002.2
20260506031531 53 40 0.0 1.7 0.03 0.42 0.42 89 1002.1
20260506031028 54 178 0.0 2.6 0.02 0.41 0.41 88 1002.1
20260506030525 54 114 0.0 2.6 0.01 0.40 0.40 88 1001.9
20260506030024 54 355 0.0 1.7 0.01 0.39 0.39 87 1001.9
20260506025525 55 355 0.0 2.6 0.02 0.39 0.39 89 1001.7
20260506025020 55 139 0.9 3.5 0.03 0.39 0.39 90 1001.5
20260506024534 55 209 1.7 6.1 0.04 0.39 0.39 87 1001.3
20260506024020 55 312 0.0 6.1 0.04 0.39 0.39 88 1001.4
20260506023520 55 316 1.7 5.2 0.04 0.39 0.39 90 1001.3
20260506023018 56 303 0.9 3.5 0.04 0.39 0.39 93 1001.3
20260506022517 56 306 0.0 4.3 0.04 0.39 0.39 93 1001.3
20260506022018 56 306 0.9 4.3 0.04 0.39 0.39 93 1001.0
20260506021517 56 349 0.9 4.3 0.04 0.39 0.39 93 1000.9
20260506021016 57 313 1.7 9.6 0.04 0.39 0.39 92 1001.1
20260506020516 56 305 4.3 9.6 0.04 0.39 0.39 92 1001.2
20260506020015 57 309 3.5 5.2 0.03 0.38 0.38 92 1001.4
20260506015514 58 318 0.9 2.6 0.02 0.37 0.37 91 1001.2
20260506015012 58 103 0.0 1.7 0.01 0.36 0.36 90 1000.9
20260506014514 58 103 0.0 1.7 0.00 0.35 0.35 90 1000.7
20260506014009 58 197 0.0 1.7 0.00 0.35 0.35 89 1000.5
20260506013507 58 196 0.0 0.9 0.00 0.35 0.35 89 1000.3
20260506013007 58 243 0.0 1.7 0.00 0.35 0.35 88 1000.2
20260506012505 58 167 0.0 1.7 0.00 0.35 0.35 88 1000.0
20260506012005 58 155 0.0 1.7 0.00 0.35 0.35 88 999.9
20260506011503 58 194 0.0 1.7 0.00 0.35 0.35 88 999.8
20260506011004 58 163 0.0 2.6 0.00 0.35 0.35 88 999.7
20260506010506 58 165 0.9 3.5 0.00 0.35 0.35 88 999.7
20260506010004 59 151 1.7 6.1 0.00 0.35 0.35 88 999.7
20260506005504 59 185 0.9 6.1 0.00 0.35 0.35 88 999.8
20260506005003 59 165 1.7 4.3 0.00 0.35 0.35 87 999.8
20260506004503 59 135 1.7 5.2 0.00 0.35 0.35 86 999.7
20260506004001 59 151 1.7 5.2 0.00 0.35 0.35 87 999.6
20260506003600 58 207 1.7 3.5 0.00 0.35 0.35 86 999.5
20260506003100 58 190 0.9 2.6 0.00 0.35 0.35 88 999.3
20260506002559 59 142 0.0 1.7 0.00 0.35 0.35 89 999.1
20260506002057 59 142 0.0 2.6 0.00 0.35 0.35 88 999.1
20260506001602 60 142 0.9 2.6 0.00 0.35 0.35 87 999.1
20260506001057 60 304 0.0 1.7 0.00 0.35 0.35 85 999.1
20260506000557 59 12 0.0 2.6 0.00 0.35 0.35 85 999.0
20260506000119 59 177 0.9 3.5 0.00 0.35 0.35 86 999.0
20260505235557 59 137 0.9 3.5 0.00 0.35 0.35 86 999.1
20260505235055 60 167 1.7 3.5 0.00 0.35 0.35 87 999.0
20260505234555 60 144 0.9 5.2 0.00 0.35 0.35 87 998.9
20260505234055 60 171 1.7 5.2 0.00 0.35 0.35 86 998.9
20260505233555 60 158 0.9 4.3 0.00 0.35 0.35 86 999.0
20260505233059 60 165 0.9 3.5 0.00 0.35 0.35 86 999.1
20260505232554 60 155 0.0 4.3 0.00 0.35 0.35 85 999.1
20260505232055 60 169 0.0 4.3 0.00 0.35 0.35 85 999.0
20260505231606 61 146 0.0 5.2 0.00 0.35 0.35 85 998.8
20260505231054 61 128 0.0 4.3 0.00 0.35 0.35 85 998.7
20260505230553 61 174 0.9 2.6 0.00 0.35 0.35 85 998.5
20260505230105 61 175 0.9 2.6 0.00 0.35 0.35 86 998.4
20260505225556 61 130 0.0 3.5 0.00 0.35 0.35 85 998.4
20260505225052 61 173 0.0 7.8 0.00 0.35 0.35 86 998.3
20260505224552 61 171 0.9 7.8 0.00 0.35 0.35 88 998.4
20260505224051 60 196 1.7 7.0 0.00 0.35 0.35 88 998.4
20260505223556 61 167 0.0 3.5 0.00 0.35 0.35 90 998.4
20260505223051 61 141 1.7 6.1 0.00 0.35 0.35 89 998.5
20260505222551 61 146 1.7 6.1 0.00 0.35 0.35 89 998.6
20260505222050 61 151 0.9 3.5 0.00 0.35 0.35 88 998.6
20260505221558 61 142 0.9 2.6 0.00 0.35 0.35 89 998.4
20260505221050 61 251 0.9 7.8 0.00 0.35 0.35 87 998.3
20260505220550 61 153 1.7 7.8 0.00 0.35 0.35 87 998.2
20260505220049 61 176 0.0 2.6 0.00 0.35 0.35 89 998.3
20260505215549 61 176 0.9 2.6 0.00 0.35 0.35 87 998.2
20260505215048 61 269 0.0 2.6 0.00 0.35 0.35 91 998.3
20260505214548 60 270 0.0 5.2 0.00 0.35 0.35 91 998.0
20260505214051 59 269 0.9 6.1 0.00 0.35 0.35 91 998.0
20260505213548 59 237 0.9 6.1 0.00 0.35 0.35 90 998.0
20260505213049 59 133 0.0 3.5 0.01 0.35 0.35 91 998.1
20260505212548 59 123 0.9 6.1 0.01 0.35 0.35 90 998.1
20260505212047 59 148 1.7 6.1 0.02 0.35 0.35 89 998.2
20260505211547 59 115 2.6 6.1 0.04 0.35 0.35 91 998.1
20260505211047 60 130 0.9 6.1 0.05 0.35 0.35 91 997.9
20260505210548 60 126 1.7 6.1 0.06 0.35 0.35 92 997.7
20260505210047 60 146 0.9 2.6 0.06 0.35 0.35 92 997.7
20260505205548 60 162 0.9 2.6 0.06 0.35 0.35 91 997.5
20260505205046 60 118 0.9 3.5 0.06 0.35 0.35 92 997.6
20260505204551 60 160 1.7 5.2 0.06 0.35 0.35 92 997.6
20260505204046 60 140 1.7 5.2 0.06 0.35 0.35 90 997.7
20260505203546 59 169 0.9 6.1 0.06 0.35 0.35 90 997.7
20260505203055 59 213 1.7 8.7 0.05 0.34 0.34 90 997.7
20260505202545 59 262 0.9 8.7 0.07 0.34 0.34 90 997.8
20260505202045 59 24 1.7 7.8 0.09 0.33 0.33 92 998.1
20260505201547 60 317 1.7 4.3 0.07 0.31 0.31 92 997.9
20260505201044 60 178 1.7 7.0 0.06 0.30 0.30 93 997.7
20260505200545 60 319 2.6 7.0 0.05 0.28 0.28 94 997.6
20260505200046 61 319 2.6 4.3 0.05 0.28 0.28 94 997.1
20260505195546 61 115 0.9 1.7 0.21 0.28 0.28 94 996.1
20260505195047 61 115 0.0 1.7 0.23 0.28 0.28 94 996.1
20260505194554 61 115 0.0 2.6 0.23 0.28 0.28 94 996.0
20260505194043 60 102 0.9 3.5 0.26 0.28 0.28 93 996.1
20260505193541 60 156 0.9 3.5 0.28 0.28 0.28 93 996.2
20260505193042 60 207 0.9 2.6 0.28 0.28 0.28 92 996.9
20260505192541 60 180 0.9 7.0 0.25 0.25 0.25 92 996.9
20260505192040 61 332 2.6 7.0 0.24 0.24 0.24 92 996.9
20260505191553 61 325 3.5 5.2 0.24 0.24 0.24 92 996.6
20260505191040 60 337 1.7 4.3 0.24 0.24 0.24 91 996.6
20260505190541 61 355 1.7 9.6 0.24 0.24 0.24 89 996.7
20260505190041 61 77 2.6 12.2 0.23 0.23 0.23 86 997.1
20260505185540 62 182 6.1 12.2 0.07 0.07 0.07 86 996.7
20260505185037 64 10 2.6 16.5 0.06 0.06 0.06 83 995.0
20260505184537 66 46 1.7 16.5 0.06 0.06 0.06 77 995.2
20260505184034 70 336 1.7 9.6 0.03 0.03 0.03 66 995.3
20260505183533 72 154 0.9 8.7 0.00 0.00 0.00 57 994.8